Location: Myrnam
(53.6612°N, 111.2289°W)
Time: 06:57:15
(UTC+00:00)

XW-2C - Visible Passes

Search period start: 03 December 2023 00:00
Search period end: 13 December 2023 00:00
Orbit: 464 x 475 km, 97.5° (Epoch: 03 December)

Date Brightness Start Highest point End Pass type
(mag) Time Alt. Az. Time Alt. Az. Time Alt. Az.
03 Dec ? 00:28:53 10° SE 00:32:16 46° ENE 00:35:41 10° N visible
03 Dec ? 02:03:09 10° SW 02:05:38 18° W 02:08:09 10° NW visible
03 Dec ? 13:20:33 10° NE 13:23:24 22° E 13:26:14 10° SSE visible
04 Dec ? 00:00:32 10° ESE 00:03:26 24° ENE 00:06:21 10° N visible
04 Dec ? 01:33:11 10° SSW 01:36:26 34° W 01:39:43 10° NNW visible
04 Dec ? 12:52:47 10° ENE 12:54:06 12° E 12:55:24 10° ESE visible
04 Dec ? 14:24:10 10° NNE 14:27:44 76° WNW 14:31:16 10° SSW visible
05 Dec ? 01:03:48 10° S 01:07:19 73° WSW 01:10:53 10° NNW visible
05 Dec ? 13:55:10 10° NNE 13:58:39 50° E 14:02:05 10° S visible
06 Dec ? 00:34:50 10° SSE 00:38:17 53° ENE 00:41:45 10° N visible
06 Dec ? 02:09:29 10° SW 02:11:43 16° W 02:13:59 10° NW visible
06 Dec ? 13:26:25 10° NE 13:29:25 25° E 13:32:24 10° SSE visible
07 Dec ? 00:06:18 10° SE 00:09:19 27° ENE 00:12:22 10° N visible
07 Dec ? 01:39:14 10° SSW 01:42:23 30° W 01:45:35 10° NNW visible
07 Dec ? 12:58:17 10° ENE 13:00:02 13° E 13:01:48 10° ESE visible
07 Dec ? 14:30:03 10° N 14:33:36 66° WNW 14:37:06 10° SSW visible
08 Dec ? 01:09:39 10° S 01:13:09 63° WSW 01:16:42 10° NNW visible
08 Dec ? 14:00:55 10° NNE 14:04:26 58° ESE 14:07:55 10° S visible
09 Dec ? 00:40:31 10° SSE 00:44:00 61° ENE 00:47:31 10° N visible
09 Dec ? 02:15:33 10° WSW 02:17:31 14° W 02:19:28 10° NW visible
09 Dec ? 13:32:01 10° NE 13:35:08 28° E 13:38:14 10° SSE visible
10 Dec ? 00:11:48 10° SE 00:14:56 30° ENE 00:18:05 10° N visible
10 Dec ? 01:45:01 10° SSW 01:48:03 27° W 01:51:09 10° NW visible
10 Dec ? 13:03:36 10° NE 13:05:41 15° E 13:07:45 10° SE visible
10 Dec ? 14:35:39 10° N 14:39:10 57° WNW 14:42:37 10° SSW visible
10 Dec ? 23:43:35 10° ESE 23:45:56 17° ENE 23:48:18 10° NNE visible
11 Dec ? 01:15:15 10° S 01:18:42 55° W 01:22:13 10° NNW visible
11 Dec ? 14:06:23 10° NNE 14:09:56 67° ESE 14:13:26 10° S visible
12 Dec ? 00:45:56 10° SSE 00:49:26 69° ENE 00:52:59 10° N visible
12 Dec ? 02:21:24 10° WSW 02:23:00 13° W 02:24:37 10° WNW visible
12 Dec ? 13:37:20 10° NNE 13:40:34 31° E 13:43:45 10° SSE visible
